Simultaneous Nadir Overpasses (SNOs) Predictions

Prediction of SNOs between GOES-15 and METOP-B Satellite Orbit:

Table of predicted SNOs for the next 14.0 days since TLE Epoch: 10/22/2022
Index Date Time (GOES-15) GOES-15 Lat,Lon METOP-B Lat,Lon Distance(km) Time Diff (sec)
1 10/22/2022 05:49:11 0.27,-128.40 0.96,-125.26 358.01 80
2 10/23/2022 18:08:03 -0.28,-128.42 0.06,-129.82 159.49 80
3 10/24/2022 17:50:04 -0.27,-128.43 -1.08,-124.83 410.28 80
4 10/26/2022 06:09:06 0.28,-128.42 0.08,-129.43 114.68 80
5 10/27/2022 05:45:46 0.27,-128.41 1.17,-124.43 453.91 80
6 10/28/2022 18:04:39 -0.27,-128.41 -0.15,-128.99 65.71 80
7 10/31/2022 06:05:39 0.26,-128.39 0.19,-128.58 22.92 80
8 11/02/2022 18:03:52 -0.25,-128.36 -0.27,-128.14 24.01 80
